Location: Brad
(46.1333°N, 22.7833°E)
Time: 06:27:12
(UTC+00:00)

Cosmos 1954 Rocket - Pass Details

Date: 03 February 2023
Orbit: 751 x 780 km, 74.0° (Epoch: 29 March)

Event Time Altitude Azimuth Distance (km) Brightness Sun altitude
Rises 16:29:15 0° 190° (S) 3,231 7.6 -9.5°
Reaches altitude 10° 16:31:39 10° 187° (S) 2,304 6.8 -9.9°
Maximum altitude 16:36:48 63° 107° (ESE) 855 4.0 -10.8°
Drops below altitude 10° 16:41:57 10° 28° (NNE) 2,301 6.1 -11.7°
Enters shadow 16:44:18 - 25° (NNE) 3,213 6.9 -12.1°
